sat.trackr.live / text

‹ back to catalog

STARLINK-3769

NORAD 52300 · 2022-041AR

PAYLOAD ACTIVE UNKNOWN

§ Identity

Operator
Country
US
Launch date
2022-04-21
Launch site
AFETR
Launch vehicle
Mass (kg)
RCS (m²)

Purposes: comms

External: N2YO · Heavens-Above · Gunter

§ Orbital elements

Epoch: 2026-09-20T02:04:27.839712Z

Period
93.85 min
Inclination
53.1593°
Eccentricity
0.0001095
Mean motion
15.34388707 rev/d
Perigee alt
462.0 km
Apogee alt
463.5 km
Semi-major
6,840.9 km
B*
8.7924e-6
RAAN
293.3092°
Arg perigee
80.4390°
Mean anomaly
279.6736°
Rev number
24,525

§ Raw data

STARLINK-37691 52300U 22041AR  26263.08643333 -.00000079  00000+0  87924-5 0  99992 52300  53.1593 293.3092 0001095  80.4390 279.6736 15.34388707245259

JSON: /api/v1/satellites/52300 · /tle

For live sub-satellite position, see the globe view (requires WebGL).

§ Visibility from observer

Set your observer location to see the next 7 days of passes ≥ 10°. The values pass through the URL so the page stays shareable.

No JS? Fill the form by hand. The geolocation button needs JavaScript.